Weather History for Versailles, OH

Change the Weather History Date:

Sunday, January 6, 2013

  Actual Average (KDAY) Record (KDAY)
Temperature  
Mean Temperature 30 °F 28 °F  
Max Temperature 35 °F 35 °F 67 °F (1946)
Min Temperature 24 °F 21 °F -10 °F (2014)
Degree Days  
Heating Degree Days 36 37  
Month to date heating degree days 222  
Since 1 July heating degree days 2381  
Cooling Degree Days 0 0  
Month to date cooling degree days 0  
Year to date cooling degree days 0  
Moisture  
Dew Point 28 °F    
Average Humidity 88    
Maximum Humidity 100    
Minimum Humidity 81    
Precipitation  
Precipitation 0.00 in 0.10 in 1.86 in (1895)
Month to date precipitation 0.59  
Year to date precipitation 0.59  
Snow  
Snow 0.00 in 0.20 in 4.80 in (1910)
Month to date snowfall 1.4  
Since 1 July snowfall 6.9  
Snow Depth -    
Sea Level Pressure  
Sea Level Pressure 30.09 in    
Wind  
Wind Speed 12 mph (WSW)    
Max Wind Speed 18 mph    
Max Gust Speed 26 mph    
Visibility 8 miles    
Events      
T = Trace of Precipitation, MM = Missing Value Source: NWS Daily Summary

Daily Weather History Graph

Daily Weather History Graph

Search for Another Location

Airport:

Trip Planner

Search our weather history database for the weather conditions in past years. The results will help you decide how hot, cold, wet, or windy it might be!

Date:

Astronomy

Jan. 06, 2013 Rise Set
Actual Time 8:00 AM EST 5:27 PM EST
Civil Twilight 7:30 AM EST 5:58 PM EST
Nautical Twilight 6:56 AM EST 6:31 PM EST
Astronomical Twilight 6:23 AM EST 7:04 PM EST
Moon 2:13 AM EST (1/6) 12:54 PM EST (1/6)
Length of Visible Light 10h 27m
Length of Day
9h 27m
Waning Crescent, 33% of the Moon is Illuminated
Jan 6
Waning Crescent
Jan 11
New
Jan 18
First Quarter
Jan 26
Full
Feb 3
Last Quarter

Hourly Weather History & Observations

Time (EST) Temp. Windchill Dew Point Humidity Pressure Visibility Wind Dir Wind Speed Gust Speed Precip Events Conditions
12:15 AM 32.0 °F 23.0 °F 28.4 °F 87% 30.10 in 10.0 mi SSW 11.5 mph - N/A   Overcast
12:35 AM 32.0 °F 23.6 °F 28.4 °F 87% 30.09 in 10.0 mi SW 10.4 mph - N/A   Overcast
12:55 AM 32.0 °F 23.6 °F 28.4 °F 87% 30.07 in 10.0 mi SSW 10.4 mph - N/A   Overcast
1:15 AM 32.0 °F 23.6 °F 28.4 °F 87% 30.07 in 10.0 mi SW 10.4 mph - N/A   Overcast
1:35 AM 33.8 °F 25.3 °F 28.4 °F 81% 30.07 in 10.0 mi SW 11.5 mph - N/A   Overcast
1:55 AM 33.8 °F 24.8 °F 28.4 °F 81% 30.06 in 10.0 mi SW 12.7 mph 17.3 mph N/A   Overcast
2:15 AM 33.8 °F 25.3 °F 28.4 °F 81% 30.05 in 10.0 mi SW 11.5 mph 18.4 mph N/A   Overcast
2:35 AM 33.8 °F 24.8 °F 28.4 °F 81% 30.05 in 10.0 mi SW 12.7 mph 19.6 mph N/A   Overcast
2:55 AM 33.8 °F 24.3 °F 28.4 °F 81% 30.05 in 10.0 mi SW 13.8 mph 18.4 mph N/A   Overcast
3:15 AM 33.8 °F 24.8 °F 28.4 °F 81% 30.05 in 10.0 mi SW 12.7 mph 18.4 mph N/A   Overcast
3:35 AM 33.8 °F 24.8 °F 28.4 °F 81% 30.04 in 10.0 mi SW 12.7 mph - N/A   Overcast
3:55 AM 33.8 °F 25.3 °F 30.2 °F 87% 30.04 in 10.0 mi SW 11.5 mph - N/A   Overcast
4:15 AM 33.8 °F 25.3 °F 30.2 °F 87% 30.02 in 10.0 mi SW 11.5 mph 17.3 mph N/A   Overcast
4:35 AM 33.8 °F 26.4 °F 30.2 °F 87% 30.02 in 10.0 mi SW 9.2 mph - N/A   Overcast
5:15 AM 33.8 °F 25.3 °F 30.2 °F 87% 30.01 in 10.0 mi SW 11.5 mph - N/A   Overcast
5:35 AM 33.8 °F 24.3 °F 30.2 °F 87% 30.00 in 10.0 mi SW 13.8 mph 17.3 mph N/A   Overcast
5:55 AM 33.8 °F 25.3 °F 30.2 °F 87% 30.00 in 10.0 mi SW 11.5 mph - N/A   Overcast
6:15 AM 33.8 °F 25.3 °F 30.2 °F 87% 30.00 in 10.0 mi SW 11.5 mph 17.3 mph N/A   Overcast
6:35 AM 33.8 °F 26.4 °F 30.2 °F 87% 30.00 in 10.0 mi SW 9.2 mph - N/A   Overcast
6:55 AM 33.8 °F 24.3 °F 30.2 °F 87% 29.99 in 10.0 mi SSW 13.8 mph - N/A   Overcast
7:15 AM 33.8 °F 25.8 °F 30.2 °F 87% 30.00 in 10.0 mi SW 10.4 mph - N/A   Overcast
7:35 AM 33.8 °F 25.3 °F 30.2 °F 87% 30.00 in 10.0 mi SW 11.5 mph - N/A   Overcast
7:55 AM 33.8 °F 26.4 °F 30.2 °F 87% 30.00 in 10.0 mi SW 9.2 mph - N/A   Overcast
8:15 AM 33.8 °F 24.8 °F 30.2 °F 87% 30.00 in 10.0 mi SW 12.7 mph - N/A   Overcast
8:35 AM 33.8 °F 24.8 °F 30.2 °F 87% 30.00 in 10.0 mi SW 12.7 mph - N/A   Overcast
8:55 AM 33.8 °F 25.3 °F 30.2 °F 87% 30.01 in 10.0 mi SW 11.5 mph 17.3 mph N/A   Overcast
9:35 AM 33.8 °F 25.8 °F 32.0 °F 93% 30.01 in 10.0 mi SW 10.4 mph - N/A   Overcast
9:55 AM 33.8 °F 24.8 °F 32.0 °F 93% 30.01 in 10.0 mi SW 12.7 mph 18.4 mph N/A   Overcast
10:15 AM 35.6 °F 27.5 °F 32.0 °F 87% 30.02 in 10.0 mi SW 11.5 mph 18.4 mph N/A   Overcast
10:35 AM 35.6 °F 27.1 °F 32.0 °F 87% 30.02 in 10.0 mi SW 12.7 mph - N/A   Overcast
10:55 AM 35.6 °F 26.6 °F 32.0 °F 87% 30.02 in 10.0 mi WSW 13.8 mph 19.6 mph N/A   Overcast
11:15 AM 35.6 °F 28.6 °F 32.0 °F 87% 30.01 in 10.0 mi SW 9.2 mph 18.4 mph N/A   Overcast
11:35 AM 35.6 °F 27.5 °F 32.0 °F 87% 30.01 in 10.0 mi WSW 11.5 mph 16.1 mph N/A   Overcast
11:55 AM 33.8 °F 24.8 °F 32.0 °F 93% 30.00 in 10.0 mi WSW 12.7 mph 17.3 mph N/A   Overcast
12:15 PM 33.8 °F 23.9 °F 32.0 °F 93% 30.00 in 7.0 mi WSW 15.0 mph - N/A   Overcast
12:35 PM 33.8 °F 26.4 °F 32.0 °F 93% 29.99 in 4.0 mi WSW 9.2 mph - N/A   Light Drizzle
12:55 PM 33.8 °F 25.8 °F 32.0 °F 93% 29.99 in 5.0 mi WSW 10.4 mph - N/A   Overcast
1:15 PM 32.0 °F 21.2 °F 32.0 °F 100% 30.00 in 5.0 mi WNW 16.1 mph 21.9 mph N/A   Overcast
1:35 PM 32.0 °F 20.5 °F 30.2 °F 93% 30.01 in 5.0 mi WNW 18.4 mph 21.9 mph N/A   Overcast
1:55 PM 32.0 °F 21.6 °F 30.2 °F 93% 30.02 in 4.0 mi WNW 15.0 mph 21.9 mph N/A   Overcast
2:15 PM 30.2 °F 19.8 °F 28.4 °F 93% 30.03 in 5.0 mi WNW 13.8 mph 18.4 mph N/A   Overcast
2:35 PM 30.2 °F 18.5 °F 26.6 °F 86% 30.04 in 10.0 mi WNW 17.3 mph 23.0 mph N/A   Overcast
2:55 PM 30.2 °F 19.3 °F 26.6 °F 86% 30.05 in 10.0 mi West 15.0 mph 26.5 mph N/A   Overcast
3:15 PM 28.4 °F 18.0 °F 26.6 °F 93% 30.07 in 7.0 mi West 12.7 mph - N/A   Overcast
3:35 PM 28.4 °F 18.0 °F 24.8 °F 86% 30.09 in 7.0 mi WNW 12.7 mph 21.9 mph N/A   Overcast
3:55 PM 26.6 °F 13.8 °F 23.0 °F 86% 30.11 in 7.0 mi West 17.3 mph 21.9 mph N/A   Overcast
4:15 PM 26.6 °F 13.4 °F 23.0 °F 86% 30.13 in 7.0 mi WNW 18.4 mph 24.2 mph N/A   Overcast
4:35 PM 26.6 °F 15.2 °F 23.0 °F 86% 30.14 in 7.0 mi West 13.8 mph 21.9 mph N/A   Overcast
4:55 PM 24.8 °F 14.0 °F 21.2 °F 86% 30.14 in 7.0 mi West 11.5 mph 18.4 mph N/A   Overcast
5:15 PM 24.8 °F 14.0 °F 21.2 °F 86% 30.16 in 7.0 mi West 11.5 mph - N/A   Overcast
5:35 PM 24.8 °F 13.4 °F 21.2 °F 86% 30.17 in 7.0 mi WNW 12.7 mph 20.7 mph N/A   Overcast
7:15 PM 24.8 °F 12.9 °F 23.0 °F 93% 30.22 in 7.0 mi WNW 13.8 mph 18.4 mph N/A   Overcast
7:35 PM 26.6 °F 16.2 °F 23.0 °F 86% 30.22 in 7.0 mi West 11.5 mph - N/A   Overcast
7:55 PM 26.6 °F 14.7 °F 23.0 °F 86% 30.23 in 7.0 mi West 15.0 mph 19.6 mph N/A   Overcast
8:15 PM 26.6 °F 14.7 °F 23.0 °F 86% 30.24 in 5.0 mi West 15.0 mph 20.7 mph N/A   Overcast
8:35 PM 26.6 °F 14.7 °F 23.0 °F 86% 30.24 in 7.0 mi WNW 15.0 mph 19.6 mph N/A   Overcast
8:55 PM 26.6 °F 15.2 °F 24.8 °F 93% 30.25 in 5.0 mi West 13.8 mph - N/A   Overcast
9:15 PM 26.6 °F 15.7 °F 24.8 °F 93% 30.26 in 7.0 mi WNW 12.7 mph 17.3 mph N/A   Overcast
9:35 PM 26.6 °F 15.7 °F 24.8 °F 93% 30.26 in 7.0 mi West 12.7 mph - N/A   Overcast
9:55 PM 26.6 °F 14.7 °F 24.8 °F 93% 30.27 in 7.0 mi West 15.0 mph 20.7 mph N/A   Overcast
10:15 PM 26.6 °F 16.8 °F 24.8 °F 93% 30.28 in 7.0 mi WNW 10.4 mph - N/A   Overcast
10:35 PM 26.6 °F 16.8 °F 24.8 °F 93% 30.28 in 7.0 mi WNW 10.4 mph - N/A   Overcast
10:55 PM 26.6 °F 15.7 °F 24.8 °F 93% 30.29 in 7.0 mi West 12.7 mph - N/A   Overcast
11:15 PM 28.4 °F 19.1 °F 24.8 °F 86% 30.30 in 7.0 mi West 10.4 mph - N/A   Overcast
11:35 PM 28.4 °F 19.1 °F 24.8 °F 86% 30.31 in 7.0 mi West 10.4 mph - N/A   Overcast
11:55 PM 28.4 °F 19.7 °F 24.8 °F 86% 30.31 in 7.0 mi West 9.2 mph - N/A   Overcast